ZKTFL NZAA-NZWR

Flight info

Callsign ZKTFL
Flight time 0h 26m
Altitude 13000
Route IDUG1Q/05R PUHOI DCT UBKEB
Aircraft PC12/L-SDFGRWY/S

Departure

Time 2026-05-04 07:44
Airport Auckland International Airport (NZAA)

Arrival

Time 2026-05-04 08:11
Airport Whangarei Airport (NZWR)
Time Latitude Longitude Altitude Speed Heading
2026-05-04 07:38 -37.00496 174.79330 22 ft 0 kts 163°
2026-05-04 07:40 -37.00525 174.79371 22 ft 15 kts 129°
2026-05-04 07:40 -37.00641 174.79437 22 ft 23 kts 160°
2026-05-04 07:40 -37.00737 174.79299 24 ft 28 kts 253°
2026-05-04 07:41 -37.00799 174.79070 22 ft 28 kts 250°
2026-05-04 07:41 -37.00817 174.79001 22 ft 30 kts 250°
2026-05-04 07:41 -37.00886 174.78760 22 ft 31 kts 249°
2026-05-04 07:41 -37.00966 174.78482 22 ft 37 kts 254°
2026-05-04 07:42 -37.01032 174.78187 22 ft 36 kts 247°
2026-05-04 07:42 -37.01105 174.77919 22 ft 33 kts 251°
2026-05-04 07:42 -37.01186 174.77735 22 ft 15 kts 163°
2026-05-04 07:42 -37.01305 174.77784 22 ft 17 kts 162°
2026-05-04 07:43 -37.01383 174.77818 22 ft 18 kts 168°
2026-05-04 07:43 -37.01371 174.78029 22 ft 48 kts 71°
2026-05-04 07:43 -37.01199 174.78654 31 ft 96 kts 72°
2026-05-04 07:43 -37.01042 174.79211 149 ft 105 kts 71°
2026-05-04 07:44 -37.00676 174.80503 601 ft 137 kts 71°
2026-05-04 07:44 -37.00439 174.81259 1045 ft 137 kts 62°
2026-05-04 07:44 -36.99433 174.81951 2151 ft 127 kts
2026-05-04 07:44 -36.98582 174.82029 2893 ft 119 kts 12°
2026-05-04 07:45 -36.97772 174.82173 3564 ft 116 kts 11°
2026-05-04 07:45 -36.97235 174.82266 3993 ft 115 kts 11°
2026-05-04 07:45 -36.96438 174.82412 4533 ft 123 kts 12°
2026-05-04 07:45 -36.95228 174.82642 5190 ft 140 kts 11°
2026-05-04 07:46 -36.94567 174.82765 5574 ft 144 kts 12°
2026-05-04 07:46 -36.93570 174.82953 6147 ft 149 kts 12°
2026-05-04 07:46 -36.92542 174.83145 6882 ft 142 kts 13°
2026-05-04 07:46 -36.91597 174.83310 7602 ft 133 kts 12°
2026-05-04 07:47 -36.90696 174.83461 8261 ft 128 kts 12°
2026-05-04 07:47 -36.89821 174.83604 8891 ft 125 kts 12°
2026-05-04 07:47 -36.88956 174.83726 9509 ft 125 kts 11°
2026-05-04 07:49 -36.83350 174.84145 13114 ft 136 kts
2026-05-04 07:49 -36.82255 174.84188 13101 ft 178 kts
2026-05-04 07:49 -36.80898 174.84267 13101 ft 210 kts
2026-05-04 07:50 -36.79351 174.84371 13086 ft 234 kts
2026-05-04 07:50 -36.77669 174.84438 13031 ft 251 kts 358°
2026-05-04 07:50 -36.75949 174.83817 13001 ft 264 kts 335°
2026-05-04 07:50 -36.74515 174.82374 13000 ft 269 kts 314°
2026-05-04 07:51 -36.73338 174.80554 12997 ft 270 kts 311°
2026-05-04 07:51 -36.72077 174.78818 12996 ft 269 kts 319°
2026-05-04 07:51 -36.70604 174.77394 12995 ft 267 kts 331°
2026-05-04 07:51 -36.68972 174.76285 12995 ft 266 kts 335°
2026-05-04 07:52 -36.67344 174.75177 12996 ft 267 kts 333°
2026-05-04 07:52 -36.65772 174.73987 12994 ft 268 kts 331°
2026-05-04 07:52 -36.64178 174.72772 12996 ft 268 kts 332°
2026-05-04 07:52 -36.62574 174.71583 12995 ft 268 kts 332°
2026-05-04 07:53 -36.60964 174.70396 12995 ft 268 kts 332°
2026-05-04 07:54 -36.49709 174.62053 12989 ft 269 kts 332°
2026-05-04 07:55 -36.48099 174.60863 12990 ft 269 kts 332°
2026-05-04 07:55 -36.46491 174.59674 12992 ft 269 kts 332°
2026-05-04 07:55 -36.44878 174.58492 12990 ft 268 kts 334°
2026-05-04 07:55 -36.43226 174.57453 12985 ft 267 kts 335°
2026-05-04 07:56 -36.41581 174.56368 12987 ft 267 kts 335°
2026-05-04 07:56 -36.39943 174.55286 12988 ft 267 kts 335°
2026-05-04 07:56 -36.38295 174.54219 12985 ft 267 kts 335°
2026-05-04 07:56 -36.36668 174.53170 12988 ft 267 kts 335°
2026-05-04 07:57 -36.35017 174.52102 12989 ft 268 kts 335°
2026-05-04 07:57 -36.33364 174.51032 12988 ft 268 kts 335°
2026-05-04 07:57 -36.31713 174.49963 12986 ft 268 kts 335°
2026-05-04 07:57 -36.30061 174.48895 12990 ft 268 kts 335°
2026-05-04 07:58 -36.28408 174.47830 12985 ft 267 kts 335°
2026-05-04 07:58 -36.26736 174.46756 12988 ft 273 kts 335°
2026-05-04 07:58 -36.25038 174.45651 12987 ft 277 kts 335°
2026-05-04 07:58 -36.23322 174.44541 12984 ft 279 kts 335°
2026-05-04 07:59 -36.21593 174.43430 12979 ft 281 kts 335°
2026-05-04 07:59 -36.19848 174.42306 12867 ft 285 kts 335°
2026-05-04 07:59 -36.18053 174.41149 12269 ft 292 kts 335°
2026-05-04 07:59 -36.16258 174.39992 11639 ft 290 kts 335°
2026-05-04 08:00 -36.14476 174.38845 11029 ft 288 kts 335°
2026-05-04 08:00 -36.12704 174.37706 10429 ft 286 kts 336°
2026-05-04 08:00 -36.10943 174.36575 9776 ft 283 kts 336°
2026-05-04 08:02 -36.00326 174.29759 8542 ft 222 kts 336°
2026-05-04 08:02 -35.98943 174.28868 8128 ft 236 kts 336°
2026-05-04 08:02 -35.97440 174.27914 7594 ft 247 kts 336°
2026-05-04 08:03 -35.95900 174.26924 7069 ft 252 kts 336°
2026-05-04 08:03 -35.94345 174.25926 6496 ft 249 kts 336°
2026-05-04 08:03 -35.92871 174.24977 5538 ft 235 kts 336°
2026-05-04 08:03 -35.91461 174.24078 4463 ft 218 kts 336°
2026-05-04 08:04 -35.90126 174.23235 3719 ft 208 kts 337°
2026-05-04 08:04 -35.88909 174.22451 3354 ft 185 kts 338°
2026-05-04 08:04 -35.87834 174.21763 3090 ft 164 kts 339°
2026-05-04 08:04 -35.86836 174.21132 2826 ft 171 kts 339°
2026-05-04 08:05 -35.85749 174.20448 2874 ft 179 kts 338°
2026-05-04 08:05 -35.84608 174.19780 2876 ft 182 kts 347°
2026-05-04 08:05 -35.83362 174.19528 2886 ft 182 kts 359°
2026-05-04 08:05 -35.82093 174.19343 2890 ft 186 kts 357°
2026-05-04 08:06 -35.80808 174.19170 2876 ft 183 kts
2026-05-04 08:06 -35.79638 174.19649 2862 ft 177 kts 38°
2026-05-04 08:06 -35.78892 174.20808 2821 ft 175 kts 65°
2026-05-04 08:06 -35.78643 174.22189 2514 ft 145 kts 83°
2026-05-04 08:08 -35.77766 174.29545 1502 ft 114 kts 81°
2026-05-04 08:08 -35.77661 174.30418 1389 ft 94 kts 81°
2026-05-04 08:10 -35.76908 174.36418 128 ft 50 kts 81°
2026-05-04 08:11 -35.76891 174.36544 128 ft 7 kts 46°
2026-05-04 08:11 -35.76851 174.36490 126 ft 7 kts 355°
2026-05-04 08:11 -35.76828 174.36485 126 ft 3 kts 351°
2026-05-04 08:12 -35.76804 174.36478 124 ft 7 kts 339°
2026-05-04 08:12 -35.76767 174.36442 126 ft 0 kts 33°
2026-05-04 08:12 -35.76768 174.36439 126 ft 0 kts 65°
2026-05-04 08:12 -35.76765 174.36457 126 ft 3 kts 83°
2026-05-04 08:13 -35.76765 174.36459 126 ft 0 kts 84°